Temp
62 57 53 59 59 63 62 58 55 58 60 58 57 57 60 65 70 73 71 73 73 74 76 78 79 79 77 75 73 72 72 71 73 71 70 69 70 71 72 75 74 75 75 75
58 53 62 66 66 64 63 56 54 58 60 58 57 56 58 62 65 67 71 73 74 75 73 76 76 78 76 75 74 72 73 71 73 72 70 71 71 72 72 72 74 76 75 76
55 61 69 67 62 60 57 57 55 56 58 59 57 54 56 62 64 67 70 74 75 74 72 73 75 75 76 75 73 73 72 71 72 72 71 70 71 70 71 71 72 73 76 77
57 67 67 63 62 60 53 65 62 56 54 48 57 46 55 58 61 64 68 69 73 74 74 75 75 74 76 76 75 73 71 71 72 72 71 71 69 69 69 69 70 72 75 75
59 62 61 61 64 65 58 65 60 58 51 51 53 48 54 59 58 62 66 68 69 75 75 75 76 76 76 77 76 74 72 71 71 71 71 70 69 70 70 70 71 71 72 75
64 69 66 64 67 69 66 59 56 53 50 45 54 51 51 55 59 64 67 69 70 75 76 76 78 77 76 77 76 74 71 71 71 71 71 71 70 70 69 69 70 70 71 72
62 63 65 67 59 64 59 49 41 41 42 45 52 50 52 61 64 67 66 67 71 72 75 75 73 74 73 74 74 73 71 70 71 71 72 72 71 70 70 70 70 70 70 70
52 53 61 67 59 56 54 49 44 40 40 44 53 48 55 65 67 67 68 69 71 71 74 74 74 73 73 75 74 74 71 69 70 71 71 71 72 70 70 70 69 70 70 70
51 54 67 69 67 66 57 49 55 46 44 43 50 57 62 66 66 68 68 73 69 70 69 74 74 73 71 72 73 74 71 70 71 71 71 71 71 71 71 71 71 70 71 71
55 51 60 67 67 65 60 62 50 46 42 36 46 49 50 60 63 67 67 67 69 71 70 71 72 72 72 72 72 72 72 71 71 71 71 71 71 71 72 71 71 70 71 72
53 50 55 61 57 57 56 53 51 50 47 41 40 48 60 65 66 65 67 70 70 72 70 70 69 71 71 72 71 71 71 71 71 71 71 71 71 71 71 71 71 71 71 70
57 49 46 55 61 64 58 51 51 48 46 46 47 51 64 65 65 64 66 68 69 73 72 70 69 68 69 70 70 70 69 71 72 72 71 71 71 71 71 71 71 71 69 69
60 50 43 49 55 60 58 58 49 48 47 45 46 52 63 66 63 63 64 65 68 69 67 67 67 67 68 69 68 68 68 68 70 71 70 71 71 71 70 69 70 71 70 70
62 50 50 42 49 52 51 56 56 50 46 46 50 57 60 61 62 61 62 64 66 67 68 67 67 66 66 67 67 68 69 69 70 71 72 71 71 71 71 71 70 69 70 69
59 51 49 51 57 58 54 55 55 50 47 48 54 56 59 59 60 61 63 65 65 65 67 67 66 66 66 66 67 68 69 71 70 71 70 71 71 72 71 70 70 70 70 71
56 51 49 48 58 60 53 56 57 55 53 53 53 53 58 61 62 62 63 65 64 66 68 68 69 68 66 67 69 69 69 69 69 69 70 71 70 70 70 69 69 70 70 70
49 50 48 42 50 58 48 51 54 54 56 52 47 52 62 60 59 59 61 63 63 65 65 64 64 66 66 67 68 68 68 69 68 68 69 69 68 68 68 69 69 69 69 69
48 45 45 42 44 41 50 55 58 57 56 56 57 59 60 59 60 61 62 63 63 62 62 62 62 62 62 64 65 67 68 68 68 67 67 68 68 68 68 68 67 67 67 64
48 44 40 39 37 45 56 56 55 50 51 57 56 59 61 62 63 59 62 62 61 61 61 61 61 60 62 63 63 66 66 67 67 67 68 68 68 67 67 66 65 66 64 61
49 46 43 38 37 37 49 59 61 59 45 57 57 59 59 59 54 57 60 60 58 58 58 60 60 60 60 61 62 62 64 66 66 67 67 67 67 66 65 65 65 65 64 62
42 40 39 39 36 43 53 59 61 45 48 58 58 59 58 57 58 59 61 58 57 57 57 60 59 57 59 61 61 59 60 59 61 63 63 64 64 64 64 63 64 65 63 61
45 39 37 36 34 37 57 57 51 54 55 61 57 58 59 59 60 59 58 57 56 56 59 60 58 57 58 58 58 57 57 59 60 62 62 61 61 62 63 64 63 63 62 62
44 47 43 44 43 51 54 54 58 59 57 58 59 60 58 59 60 60 58 58 58 58 59 60 58 58 58 59 59 56 56 58 58 58 58 58 58 59 59 59 61 62 63 63
49 51 46 48 49 54 56 58 60 62 61 61 61 61 60 58 60 59 58 59 58 58 57 58 59 57 56 56 55 56 55 56 56 56 57 58 57 56 58 58 58 60 61 61
52 53 48 48 51 56 60 61 62 62 63 64 63 63 63 61 59 58 57 57 58 57 56 56 55 53 52 51 52 53 53 53 52 51 51 50 51 50 48 46 50 53 46 49
53 51 48 47 55 54 58 61 63 62 62 62 62 61 62 62 60 60 57 57 57 55 56 55 54 53 53 51 51 51 52 52 51 50 50 50 50 48 47 47 46 47 47 45
MSLP
1009.43 1010.16 1010.29 1010.03 1010.53 1010.73 1011.38 1012.38 1013.53 1014.43 1014.66 1014.53 1014.84 1014.47 1014.27 1013.59 1013.04 1012.74 1012.48 1012.77 1013.19 1013.48 1014.07 1014.64 1015.13 1015.65 1016.15 1016.82 1017.12 1017.43 1017.71 1017.96 1018.28 1018.67 1018.88 1019.22 1019.53 1019.61 1019.72 1019.42 1019.49 1019.34 1019.49 1019.62
1009.88 1009.82 1009.75 1009.94 1010.37 1010.67 1011.38 1012.72 1013.90 1014.90 1015.10 1015.46 1015.05 1014.82 1014.66 1014.52 1013.71 1013.31 1012.74 1012.68 1012.96 1013.39 1014.42 1014.82 1015.23 1015.82 1016.14 1016.54 1016.88 1017.35 1017.46 1017.90 1018.19 1018.44 1018.74 1019.00 1019.27 1019.62 1019.72 1019.51 1019.41 1019.55 1019.42 1019.53
1009.75 1009.34 1009.28 1009.74 1010.23 1010.94 1011.73 1012.30 1013.30 1013.89 1015.10 1015.28 1015.39 1014.94 1014.51 1014.36 1013.62 1013.37 1012.91 1012.59 1012.73 1012.97 1013.94 1014.79 1015.11 1015.55 1015.97 1016.30 1016.53 1017.11 1017.40 1017.72 1018.07 1018.43 1018.79 1019.14 1019.28 1019.61 1019.88 1019.75 1019.75 1019.60 1019.41 1019.38
1009.56 1008.95 1009.07 1009.42 1009.99 1010.73 1011.66 1011.65 1012.74 1013.58 1014.55 1015.20 1015.29 1014.65 1013.45 1013.60 1013.85 1013.31 1013.17 1012.98 1012.76 1013.00 1013.60 1014.16 1014.84 1015.27 1015.66 1016.01 1016.44 1016.98 1017.39 1017.66 1017.92 1018.32 1018.64 1019.10 1019.46 1019.83 1019.98 1020.03 1019.93 1019.77 1019.71 1019.59
1009.27 1008.88 1008.88 1009.15 1009.22 1010.05 1011.24 1011.71 1012.78 1013.99 1014.13 1014.71 1015.02 1015.12 1013.24 1013.16 1012.82 1012.79 1012.99 1013.03 1012.88 1012.74 1012.99 1013.55 1014.19 1014.59 1015.22 1015.83 1016.24 1016.81 1017.41 1017.71 1017.84 1018.05 1018.31 1018.90 1019.40 1019.60 1019.70 1019.91 1019.94 1019.85 1019.74 1019.65
1008.72 1008.09 1008.37 1008.38 1008.51 1009.14 1011.04 1012.66 1013.75 1014.26 1014.08 1014.44 1014.22 1014.43 1012.68 1012.18 1011.48 1011.43 1012.61 1012.83 1012.94 1012.72 1013.16 1013.18 1013.83 1014.58 1015.16 1015.79 1016.27 1016.67 1017.26 1017.58 1017.81 1017.97 1018.29 1018.76 1019.22 1019.60 1019.91 1019.93 1019.98 1019.83 1019.85 1019.72
1008.69 1008.22 1008.22 1008.19 1009.55 1010.55 1010.98 1012.74 1013.88 1014.46 1014.33 1014.45 1014.11 1014.02 1011.77 1010.84 1010.35 1010.74 1011.55 1012.36 1012.51 1012.58 1012.89 1013.36 1013.83 1014.57 1015.14 1015.65 1016.17 1016.51 1016.99 1017.44 1017.76 1017.88 1017.99 1018.29 1018.73 1019.19 1019.57 1019.67 1019.79 1019.89 1019.81 1019.82
1009.08 1008.61 1008.26 1008.06 1008.72 1009.44 1010.89 1011.52 1012.17 1013.25 1014.05 1014.19 1013.90 1012.40 1010.13 1009.65 1009.83 1010.22 1011.10 1011.71 1012.24 1012.49 1012.62 1012.99 1013.25 1014.02 1014.49 1015.11 1015.89 1016.36 1016.78 1017.18 1017.51 1017.86 1018.06 1018.11 1018.38 1018.77 1019.05 1019.38 1019.52 1019.55 1019.66 1019.62
1009.40 1008.69 1007.69 1007.69 1007.92 1008.57 1010.21 1010.82 1010.80 1012.32 1013.62 1013.59 1012.94 1010.98 1009.85 1009.03 1009.52 1009.96 1010.71 1010.89 1011.75 1012.33 1012.72 1012.62 1013.15 1013.64 1014.15 1014.92 1015.46 1015.98 1016.43 1016.95 1017.23 1017.45 1017.74 1018.05 1018.40 1018.65 1018.84 1019.16 1019.40 1019.47 1019.33 1019.32
1009.72 1009.44 1007.65 1007.15 1007.47 1008.28 1008.49 1009.06 1010.45 1011.66 1012.92 1013.37 1012.42 1011.01 1009.34 1008.79 1008.63 1008.68 1009.19 1009.64 1010.20 1011.33 1012.24 1012.54 1013.00 1013.46 1013.86 1014.26 1015.02 1015.66 1016.08 1016.46 1016.86 1017.36 1017.76 1017.95 1018.23 1018.56 1018.74 1018.96 1019.04 1019.40 1019.33 1019.24
1009.81 1010.06 1008.65 1007.82 1007.55 1007.79 1008.34 1008.85 1009.72 1010.71 1011.57 1012.13 1012.07 1009.94 1007.09 1006.85 1007.05 1007.69 1008.17 1008.67 1009.58 1010.39 1010.96 1012.15 1013.00 1013.27 1013.57 1013.92 1014.75 1015.19 1015.80 1016.20 1016.67 1017.19 1017.56 1017.99 1018.28 1018.55 1018.74 1018.88 1018.82 1019.03 1019.22 1019.28
1009.86 1010.42 1009.86 1008.40 1007.76 1007.65 1007.79 1008.87 1009.34 1010.40 1011.45 1011.33 1010.70 1008.37 1006.50 1006.57 1006.88 1007.52 1008.09 1008.64 1009.52 1010.29 1011.01 1011.28 1012.68 1013.48 1013.63 1013.89 1014.57 1015.02 1015.60 1016.10 1016.41 1016.70 1017.28 1017.82 1018.33 1018.69 1018.87 1018.94 1018.89 1018.87 1019.07 1019.18
1009.54 1010.66 1010.30 1009.00 1008.10 1008.32 1008.96 1009.17 1009.04 1009.58 1010.18 1010.60 1010.20 1007.95 1006.89 1006.47 1007.18 1007.78 1008.44 1009.10 1009.48 1010.15 1011.23 1011.93 1012.74 1013.66 1013.68 1014.09 1014.55 1014.90 1015.49 1016.14 1016.55 1016.66 1017.03 1017.71 1018.14 1018.48 1019.07 1019.29 1018.90 1018.83 1018.89 1019.06
1009.82 1011.05 1011.31 1010.90 1010.12 1010.31 1010.14 1010.01 1009.38 1009.52 1010.54 1010.37 1009.22 1008.04 1007.28 1007.47 1007.76 1008.62 1008.92 1009.45 1009.69 1010.14 1011.11 1011.56 1013.09 1013.47 1013.77 1014.26 1014.55 1014.98 1015.21 1015.66 1016.29 1016.56 1016.60 1017.24 1017.81 1018.52 1019.01 1019.18 1019.00 1018.99 1019.03 1019.08
1010.41 1011.37 1011.65 1010.94 1010.70 1010.55 1010.87 1010.49 1010.11 1010.17 1010.53 1010.51 1008.94 1008.84 1008.13 1008.48 1008.34 1008.90 1009.29 1009.84 1010.19 1010.73 1010.79 1011.65 1012.43 1012.85 1013.57 1014.12 1014.52 1014.83 1015.24 1014.82 1015.52 1016.13 1016.41 1016.95 1017.76 1018.11 1018.68 1019.00 1018.81 1018.96 1019.00 1019.10
1011.17 1011.51 1012.01 1011.94 1011.25 1010.83 1011.23 1010.97 1010.62 1010.99 1011.08 1010.34 1010.12 1009.85 1009.57 1009.31 1009.17 1009.56 1009.71 1009.89 1010.42 1010.60 1010.83 1011.07 1011.29 1012.19 1013.12 1013.75 1014.18 1014.44 1014.97 1014.89 1015.47 1015.92 1016.57 1017.07 1017.55 1017.64 1018.28 1018.67 1018.76 1018.84 1019.02 1019.00
1012.50 1012.63 1012.95 1013.00 1012.13 1011.34 1011.69 1011.78 1011.45 1011.63 1011.81 1011.51 1011.08 1011.29 1010.40 1010.46 1010.45 1010.76 1010.90 1011.07 1011.59 1011.95 1012.12 1012.40 1012.78 1012.65 1013.01 1013.42 1014.00 1014.46 1014.76 1015.14 1015.77 1016.26 1016.46 1016.86 1017.48 1018.08 1018.11 1018.20 1018.37 1018.42 1018.76 1018.97
1013.23 1013.63 1014.01 1014.08 1013.32 1012.81 1011.76 1011.65 1011.76 1011.66 1012.10 1011.93 1011.52 1011.48 1011.21 1011.17 1011.55 1011.56 1011.80 1012.07 1012.39 1012.81 1013.35 1013.68 1013.93 1013.96 1013.97 1014.18 1014.02 1014.43 1014.97 1015.63 1016.00 1016.46 1016.79 1016.95 1017.38 1017.54 1017.84 1018.17 1018.46 1018.59 1018.73 1019.12
1013.73 1014.15 1015.14 1015.12 1014.67 1013.64 1012.07 1011.42 1011.52 1011.67 1012.39 1012.28 1011.92 1011.85 1011.70 1011.57 1011.65 1012.65 1013.19 1013.24 1013.55 1013.93 1014.20 1014.47 1014.60 1014.71 1014.54 1014.62 1014.86 1014.61 1015.07 1015.58 1015.76 1016.23 1016.17 1016.79 1016.99 1017.30 1017.80 1018.34 1018.68 1018.75 1019.14 1019.57
1014.26 1014.36 1015.21 1015.97 1015.38 1014.14 1012.05 1011.42 1011.39 1011.56 1012.50 1012.49 1012.15 1012.14 1012.13 1011.92 1013.15 1014.33 1014.63 1014.75 1014.78 1014.93 1015.01 1015.11 1015.38 1015.31 1015.25 1015.36 1015.09 1015.26 1015.48 1015.63 1015.68 1015.53 1016.10 1016.36 1016.82 1017.31 1017.79 1018.18 1018.53 1018.85 1019.37 1019.82
1015.17 1015.79 1016.32 1016.26 1015.47 1013.84 1012.15 1011.49 1011.65 1011.96 1012.41 1012.26 1012.41 1012.23 1012.21 1012.77 1013.75 1014.38 1014.78 1015.45 1015.63 1015.74 1015.70 1015.70 1015.76 1016.08 1016.15 1016.01 1015.92 1016.24 1016.48 1016.71 1016.78 1016.84 1016.81 1016.90 1017.59 1018.01 1018.32 1018.51 1018.83 1019.25 1019.64 1020.05
1015.04 1015.65 1016.08 1016.14 1015.20 1013.73 1012.10 1011.91 1012.01 1011.36 1011.52 1011.94 1012.53 1012.54 1012.49 1012.96 1013.85 1013.94 1014.37 1016.15 1016.32 1016.46 1016.25 1016.16 1016.21 1016.57 1016.73 1016.64 1016.71 1017.05 1017.40 1017.88 1017.77 1017.35 1017.67 1017.73 1018.31 1018.61 1018.81 1019.13 1019.35 1019.65 1019.97 1020.21
1014.76 1014.27 1014.50 1014.80 1014.03 1013.00 1012.32 1011.82 1011.19 1011.23 1011.56 1012.06 1012.24 1012.83 1013.53 1013.97 1013.95 1014.54 1015.43 1015.12 1016.39 1016.84 1016.74 1016.37 1016.67 1017.05 1017.60 1017.71 1017.72 1017.97 1018.30 1018.26 1018.45 1018.61 1018.85 1019.08 1018.98 1019.31 1019.43 1019.55 1019.87 1019.85 1020.11 1020.50
1013.63 1013.35 1013.86 1014.00 1013.56 1012.83 1012.01 1011.86 1011.57 1011.39 1011.55 1011.83 1012.20 1012.68 1013.55 1013.82 1014.64 1014.60 1015.93 1016.15 1016.28 1016.61 1017.11 1017.09 1016.95 1017.77 1018.14 1018.39 1018.53 1018.69 1018.94 1019.01 1019.16 1019.35 1019.62 1019.73 1020.08 1020.08 1020.08 1020.22 1020.27 1020.36 1020.66 1021.15
1012.87 1013.13 1013.38 1013.58 1013.19 1012.91 1012.47 1012.23 1012.03 1011.91 1011.68 1012.06 1012.53 1012.76 1013.36 1014.01 1014.73 1015.40 1016.16 1016.14 1016.62 1016.64 1017.07 1017.31 1017.33 1018.05 1018.52 1018.84 1019.13 1019.33 1019.55 1019.67 1019.84 1020.04 1020.09 1020.31 1020.58 1020.83 1021.19 1021.55 1021.75 1021.51 1021.84 1021.93
1012.22 1012.25 1012.55 1012.50 1012.08 1012.04 1012.14 1011.98 1012.09 1011.98 1012.19 1012.31 1012.50 1013.07 1013.52 1014.05 1014.84 1015.57 1016.43 1016.78 1017.08 1017.34 1017.63 1017.89 1017.88 1018.21 1018.60 1018.93 1019.16 1019.48 1019.64 1019.85 1020.24 1020.54 1020.77 1020.84 1021.14 1021.45 1021.65 1021.94 1022.21 1022.38 1022.46 1022.54
Wind_Speed
1 4 5 8 4 4 5 5 10 3 3 3 3 4 9 9 3 11 10 16 17 20 14 15 14 13 11 6 8 9 9 6 7 2 3 4 2 1 1 2 2 3 4 3
4 5 7 1 3 2 9 9 4 4 3 1 5 9 6 9 4 2 7 18 19 15 15 14 13 12 12 12 10 8 10 7 5 3 2 3 3 2 1 1 2 2 3 3
6 6 4 4 2 4 2 6 7 7 6 3 1 3 5 6 1 4 4 10 18 20 19 16 15 14 12 12 11 11 10 9 6 6 4 3 3 3 2 1 1 0 1 3
4 6 6 5 5 7 5 6 8 14 6 2 1 4 6 7 6 4 3 4 14 19 17 19 16 15 13 13 8 8 7 8 7 8 6 5 4 3 3 2 1 1 1 2
8 4 3 6 10 8 4 12 11 5 4 5 5 2 3 9 8 7 8 6 7 19 22 22 20 17 14 11 11 9 8 7 7 7 7 5 4 3 2 2 3 2 1 0
9 4 5 6 1 13 17 9 6 0 2 2 5 3 4 8 20 13 7 7 7 15 17 19 17 14 12 9 9 8 8 7 7 7 7 8 7 5 3 3 3 3 2 2
5 1 3 8 13 5 6 5 2 2 3 3 4 2 11 9 9 18 14 7 9 7 15 15 14 13 11 12 11 10 9 8 7 7 7 8 8 7 7 6 4 4 3 2
1 3 7 5 7 12 7 6 7 7 5 3 3 6 6 6 9 15 5 7 10 8 14 16 17 14 14 15 13 11 10 7 7 7 7 6 7 4 4 4 4 4 3 3
2 6 4 4 6 11 7 4 5 8 3 4 3 6 5 9 6 15 20 23 15 10 7 16 14 14 12 12 14 14 12 8 8 8 6 6 5 5 5 6 4 3 4 3
2 4 4 2 5 2 8 6 3 3 5 3 5 7 5 8 12 12 14 20 20 23 11 7 11 15 13 13 11 10 10 11 8 7 5 5 6 5 5 4 6 4 3 2
1 4 8 3 4 8 1 2 5 5 5 6 3 8 9 14 13 16 14 19 19 20 19 10 6 11 13 12 12 11 10 9 8 6 6 5 4 4 4 4 5 5 4 3
1 3 4 8 2 5 2 0 4 6 4 2 4 8 4 9 7 10 12 14 13 16 15 15 9 7 11 12 11 11 7 6 7 7 6 4 3 1 4 5 6 5 5 4
1 3 5 10 8 7 6 5 1 3 4 6 6 8 2 8 9 7 10 9 13 13 12 9 8 9 10 9 8 7 7 5 5 7 8 7 5 4 6 7 5 5 5 4
3 3 4 6 4 1 4 8 4 5 5 4 7 7 1 5 10 7 8 9 12 16 15 12 9 7 5 6 6 6 8 8 6 6 7 6 4 4 8 5 5 5 3 1
4 2 2 4 1 6 0 5 9 6 3 6 4 6 5 2 7 7 8 11 12 14 19 15 11 9 9 6 6 5 5 8 7 7 7 8 8 11 10 6 6 4 3 4
6 5 3 2 2 8 3 10 6 6 7 6 6 5 6 6 5 5 7 11 13 13 13 11 14 10 10 9 8 7 6 5 6 7 8 6 7 10 8 4 6 6 4 2
2 3 4 4 6 9 5 5 6 1 5 4 5 3 6 7 9 9 9 9 9 4 6 6 3 7 10 10 6 5 6 8 6 6 7 6 6 6 6 5 5 4 4 5
3 4 3 2 4 5 5 2 4 2 2 6 5 5 5 6 10 13 10 9 9 10 8 7 5 4 4 4 5 6 6 6 6 5 5 5 7 6 5 5 4 4 4 6
2 5 4 3 1 5 3 3 1 2 3 3 3 8 8 11 14 13 13 12 9 7 7 6 5 4 5 6 6 5 6 4 7 6 7 8 8 7 6 5 4 3 5 5
3 8 6 2 3 7 6 1 2 4 4 2 4 7 7 2 7 3 8 7 7 7 6 6 5 4 6 6 5 7 4 6 5 8 8 5 6 7 6 6 5 2 4 5
4 4 4 2 2 6 6 5 2 3 7 5 3 9 6 8 4 7 7 6 4 5 5 6 7 6 5 5 5 8 8 8 5 4 5 8 7 5 5 4 3 2 5 7
4 5 3 2 1 3 1 2 4 6 2 7 4 5 15 13 11 12 13 4 4 5 5 7 7 7 6 6 7 7 9 4 5 6 6 7 5 4 4 5 3 4 5 6
2 7 5 7 6 6 5 4 3 4 4 4 7 6 6 8 8 6 7 11 4 5 4 6 7 7 6 6 6 7 4 5 5 6 5 5 6 5 4 5 4 4 3 3
3 3 2 3 2 1 3 4 5 2 4 6 4 10 6 9 7 8 4 8 8 6 4 4 7 6 5 5 6 5 5 5 6 6 5 4 5 5 5 3 3 3 3 2
5 6 3 1 2 4 3 3 6 5 6 7 6 7 7 8 6 6 4 5 3 4 4 4 7 5 5 5 6 4 4 4 5 5 4 4 4 5 5 5 4 4 4 3
5 7 5 7 8 6 7 4 5 9 6 6 7 5 4 6 8 6 5 5 7 6 5 4 6 7 6 5 5 4 4 5 5 4 2 3 3 3 3 3 2 6 6 6
Wind_Direction
356 88 221 242 118 157 83 73 106 103 107 38 259 301 303 328 224 201 163 162 167 171 174 171 171 172 161 172 149 148 139 148 135 129 110 72 138 152 201 194 265 152 167 162
11 232 226 221 200 261 122 121 110 114 164 213 211 249 248 292 281 326 193 170 172 155 164 171 172 178 176 177 168 160 151 162 152 132 135 135 149 150 132 161 103 115 177 159
168 234 122 178 135 116 127 145 182 145 160 160 214 322 238 249 213 311 323 173 170 162 168 172 177 181 180 182 173 170 164 163 161 141 107 77 60 46 46 8 99 227 158 139
246 278 229 203 202 132 189 178 164 133 139 178 181 269 206 211 216 229 255 207 170 168 169 171 178 182 186 186 173 163 159 160 155 152 135 151 165 157 203 154 238 171 26 213
257 281 241 225 217 151 191 127 134 151 118 125 193 264 230 201 206 220 224 210 187 174 170 176 183 179 189 173 176 163 166 163 158 165 158 155 165 174 168 147 200 206 275 339
234 242 190 214 8 160 127 105 104 188 130 62 165 193 245 197 215 201 206 190 202 180 181 177 176 172 175 169 167 167 167 180 169 172 164 163 181 185 169 183 208 227 209 242
326 308 78 101 76 28 93 131 56 360 40 219 148 180 245 216 216 196 166 180 189 180 177 176 164 172 164 173 176 176 177 182 188 178 176 176 181 182 195 193 203 197 199 212
102 342 191 155 166 180 181 162 157 189 168 186 175 224 254 156 194 182 204 190 177 186 187 179 174 174 179 176 177 180 184 184 184 187 201 186 184 186 192 199 199 206 211 210
38 276 247 195 156 155 210 206 198 111 16 87 228 277 295 237 185 166 207 208 180 200 201 182 178 178 174 177 179 187 182 194 188 193 188 191 190 188 190 198 203 223 202 204
284 275 243 249 101 272 175 162 105 6 149 184 280 283 232 171 190 192 194 187 187 182 174 169 180 184 185 175 181 173 183 184 188 178 186 199 186 194 221 204 204 207 241 210
150 155 282 166 190 190 202 235 47 114 135 152 179 262 213 208 183 180 184 181 176 174 160 168 192 186 182 164 170 169 175 171 174 174 173 187 202 195 204 205 213 193 192 199
133 155 267 230 285 242 108 133 139 131 220 197 174 268 358 141 160 154 180 172 173 181 174 161 162 169 167 168 170 163 140 156 176 162 160 177 145 80 224 214 221 201 194 184
141 14 350 348 1 20 36 326 312 130 74 197 147 265 17 108 109 147 155 159 153 154 153 136 135 185 178 172 156 141 142 167 198 164 151 147 131 46 294 268 228 202 208 224
100 111 164 189 164 295 348 325 321 136 117 215 220 276 183 160 123 142 150 163 158 154 163 156 176 170 178 175 174 186 167 154 172 176 140 140 155 222 253 251 226 220 200 236
132 129 274 251 129 117 113 17 21 48 52 194 276 225 344 19 128 141 143 142 138 160 160 164 179 171 184 184 184 163 191 153 143 173 160 192 191 207 237 209 208 221 199 221
344 170 95 288 291 61 54 3 76 58 345 301 357 26 337 8 22 105 144 155 165 174 177 185 188 176 174 169 180 164 162 129 148 172 194 192 209 211 214 197 197 176 201 185
45 113 99 266 341 58 343 342 10 81 18 294 23 292 32 24 39 30 40 66 78 90 79 82 97 159 159 165 180 143 139 135 144 164 155 144 165 188 186 188 186 188 176 138
154 92 40 194 339 168 231 201 266 121 43 349 60 72 82 95 77 56 49 70 67 88 85 92 84 86 46 354 88 146 135 144 139 144 184 181 181 174 161 163 171 153 139 137
219 111 84 129 82 303 310 270 143 136 20 324 67 118 129 100 81 45 37 43 51 65 79 75 76 58 49 32 26 117 147 173 142 165 196 189 168 151 143 140 148 106 119 120
33 66 106 78 150 203 232 216 214 98 340 125 119 113 149 172 89 43 39 36 53 52 53 67 77 65 63 40 59 75 117 149 157 266 204 149 149 146 141 146 135 101 119 108
16 10 100 144 219 287 255 255 36 117 222 140 179 135 122 97 136 140 94 62 32 41 59 71 58 54 43 52 54 87 81 71 65 67 51 73 57 74 91 89 57 205 137 116
172 139 191 88 131 275 256 0 202 214 112 137 153 108 124 127 134 144 125 123 104 111 92 78 72 51 32 44 69 68 73 66 80 76 80 79 74 69 65 81 90 116 131 129
228 184 182 172 212 248 264 212 284 160 125 143 134 147 138 142 142 123 128 119 150 142 91 101 91 81 45 41 67 80 62 81 88 85 81 68 72 66 65 73 53 77 87 133
266 138 153 106 339 357 85 5 11 41 148 135 116 131 142 125 147 104 126 148 144 139 124 104 100 85 72 49 66 92 90 80 80 82 75 78 82 70 47 55 52 90 90 99
196 128 159 60 93 76 314 265 154 98 98 111 131 130 131 130 125 130 159 105 90 113 115 129 116 110 105 102 98 85 71 67 79 87 89 79 73 74 74 53 21 45 34 9
184 171 149 220 194 154 194 198 184 114 106 124 132 126 141 151 141 132 147 175 157 148 155 144 136 132 147 140 147 153 145 119 113 101 97 103 107 106 101 115 89 54 52 31